Overview Statistics Trail Chart Weather Telemetry Raw packets
 

This is the latest recevied weather packets stored in our database for station/object AA7VG. If no packets are shown the sender has not sent any weather packets the latest 10 day(s).

<< 5 6 7 8 9 10 11 >>
Time Temp. Humidity Pressure Rain* Wind** Luminosity Snow
1788575967 20.56° C 33% 1012.7 hPa 0 mm - - -
1788575662 21.11° C 32% 1012.7 hPa 0 mm - - -
1788575361 21.67° C 29% 1012.6 hPa 0 mm - - -
1788575057 21.67° C 29% 1012.7 hPa 0 mm - - -
1788574752 21.67° C 29% 1012.5 hPa 0 mm - - -
1788574446 22.78° C 28% 1012.3 hPa 0 mm - - -
1788574141 22.78° C 27% 1011.9 hPa 0 mm - - -
1788573841 22.78° C 26% 1012.2 hPa 0 mm - - -
1788573540 23.33° C 26% 1012.1 hPa 0 mm - - -
1788573239 23.89° C 25% 1012.3 hPa 0 mm - - -
1788572939 24.44° C 25% 1012.2 hPa 0 mm - - -
1788572635 24.44° C 24% 1012.1 hPa 0 mm - - -
1788572335 25° C 23% 1011.9 hPa 0 mm - - -
1788572032 25° C 23% 1012.1 hPa 0 mm - - -
1788571732 26.11° C 22% 1011.9 hPa 0 mm - - -
1788571427 26.11° C 22% 1011.9 hPa 0 mm - - -
1788571124 26.11° C 22% 1011.9 hPa 0 mm - - -
1788570819 26.11° C 22% 1011.9 hPa 0 mm - - -
1788570515 26.67° C 21% 1011.8 hPa 0 mm - - -
1788570210 26.67° C 22% 1011.4 hPa 0 mm - - -
1788569906 26.67° C 22% 1011.7 hPa 0 mm - - -
1788569602 27.78° C 20% 1011.5 hPa 0 mm - - -
1788569296 27.22° C 21% 1011.5 hPa 0 mm - - -
1788568990 27.22° C 21% 1011.5 hPa 0 mm - - -
1788568686 27.22° C 22% 1011.5 hPa 0 mm - - -

* Rain latest hour (hover to see other rain measurements)
** Current wind speed in m/s (hover to see current wind gust speed)